Theta_e
321 320 318 317 317 316 315 315 315 315 315 315 315 315 315 315 315 315 316 316 316 317 318 318 319 319 318 317 317 325 340 336 322 318 316 313 311 312 308 311 312 309 311 312 313 312 313
320 320 318 317 316 315 314 314 314 314 314 314 315 315 315 315 315 315 316 316 316 316 317 318 319 320 315 311 328 324 323 321 319 317 317 316 315 316 313 312 311 312 312 311 311 312 312
319 318 318 317 315 314 314 314 314 314 314 314 314 314 314 315 314 315 316 316 317 317 317 318 320 321 317 315 323 329 323 320 320 318 315 319 320 317 316 311 316 313 308 310 311 311 311
318 318 318 317 315 314 314 314 314 314 314 314 314 313 314 314 314 315 316 316 317 319 318 319 321 320 315 325 324 326 324 322 323 321 320 322 322 317 315 316 313 310 310 304 310 311 312
318 318 317 316 314 313 313 313 313 313 314 314 313 313 313 314 315 315 315 316 321 318 320 321 319 320 315 322 318 322 326 320 321 320 321 321 319 314 314 309 306 308 302 304 307 313 312
317 318 317 315 314 313 312 313 312 313 313 313 313 312 313 315 315 315 314 316 321 318 319 320 320 316 318 316 320 320 324 323 319 316 315 314 312 308 309 306 299 302 303 305 305 310 310
317 317 316 314 313 313 312 312 312 312 313 313 313 312 313 314 315 314 316 323 319 318 321 316 317 316 317 321 322 318 320 320 319 314 307 311 306 303 307 309 309 307 305 304 308 311 309
318 317 315 313 312 312 312 311 311 312 312 312 312 312 313 313 314 314 316 319 314 316 308 317 317 316 318 319 314 317 320 312 313 307 310 307 303 309 311 310 309 307 305 304 308 310 308
317 316 315 313 312 311 311 311 311 311 311 311 310 311 312 312 312 314 320 314 319 319 310 315 315 314 316 316 312 313 317 313 310 307 308 305 308 312 310 308 306 306 304 304 304 308 309
316 315 314 312 311 311 311 310 310 310 310 310 310 310 311 310 314 320 317 319 320 322 306 309 311 316 318 317 311 318 319 314 310 306 309 308 311 309 308 307 307 302 308 307 305 303 298
315 314 313 312 311 311 310 310 310 310 309 309 309 310 310 309 318 316 316 320 321 319 299 309 313 322 318 313 315 315 319 315 308 308 309 306 308 307 306 307 309 305 309 307 306 304 303
314 313 313 311 311 310 310 309 309 309 309 308 309 309 309 315 321 321 319 320 319 308 298 306 312 311 312 313 313 315 314 316 315 310 310 309 313 311 309 311 310 311 307 307 306 303 297
314 313 312 311 311 310 309 309 309 309 308 308 308 308 308 316 315 318 320 317 306 300 307 304 307 309 308 308 309 311 310 309 305 301 302 306 307 311 312 307 310 308 304 296 294 295 294
313 312 312 311 310 310 309 308 308 308 307 307 306 306 314 318 321 318 317 310 299 305 303 310 307 306 303 306 307 307 307 305 310 308 303 300 298 306 311 308 305 305 305 296 288 291 295
312 312 311 311 310 309 309 308 307 307 307 305 305 319 320 321 318 317 310 301 302 306 306 304 304 301 302 305 304 305 305 304 307 309 302 301 300 309 311 311 309 305 301 306 298 300 296
311 311 311 311 310 310 309 308 308 307 306 305 307 316 318 321 320 314 305 299 305 308 307 304 298 302 299 303 303 304 303 307 306 309 310 305 298 306 308 311 310 307 309 299 300 288 286
311 310 311 310 310 309 308 308 308 307 306 305 311 310 317 320 318 309 301 304 306 309 307 302 301 301 302 302 303 302 302 305 308 307 309 307 303 301 306 303 301 302 302 302 300 297 291
310 310 310 310 309 309 308 307 307 306 305 305 309 305 317 318 305 308 305 305 301 306 307 305 305 303 301 302 301 301 301 304 306 305 301 305 302 297 299 305 306 304 301 301 295 292 293
309 309 309 309 309 308 308 307 307 306 305 302 304 308 318 316 301 303 308 305 306 304 304 303 303 304 305 302 299 302 303 306 305 303 302 305 299 293 294 299 303 300 300 301 301 296 292
309 309 309 309 308 308 307 307 307 306 305 305 307 302 309 310 309 304 302 301 301 306 304 304 303 305 303 301 304 300 301 305 305 304 307 306 299 294 290 294 300 296 298 298 299 293 292
308 308 308 308 308 308 307 307 307 306 304 306 308 304 306 299 302 302 302 301 299 299 304 306 302 302 301 298 299 299 302 303 304 304 302 302 295 297 297 298 298 297 296 296 295 295 291
308 308 308 308 308 307 307 307 306 305 304 308 302 300 303 300 302 301 301 300 299 301 302 301 300 302 302 299 301 298 302 303 302 303 301 304 295 297 294 297 297 294 296 297 296 295 295
308 308 308 308 307 307 306 306 306 306 304 303 305 306 301 298 299 298 299 301 299 301 302 303 302 300 299 302 304 305 306 306 306 303 301 300 298 296 291 296 295 291 295 296 297 298 297
307 307 307 307 307 307 306 305 305 306 304 303 304 303 297 293 296 296 298 299 298 299 297 301 302 300 304 309 306 306 305 304 304 304 305 300 299 297 292 294 285 295 302 300 298 299 299
307 307 307 307 307 307 305 305 305 305 305 302 305 303 298 292 296 295 296 297 299 300 298 299 301 303 305 302 296 295 296 297 298 300 300 304 300 294 290 290 293 295 298 297 297 297 302
306 306 306 306 306 306 306 305 305 304 304 303 305 307 301 293 292 298 295 297 294 295 296 298 303 307 304 298 294 288 287 292 292 295 302 302 303 296 293 286 283 294 302 304 302 291 303
306 305 306 306 306 305 305 305 305 304 305 304 303 308 300 294 297 297 294 293 298 296 294 297 299 300 303 295 290 289 289 295 290 291 294 296 295 291 291 289 292 300 303 303 290 293 302
305 305 305 306 306 306 305 304 305 304 304 302 301 306 300 294 296 298 298 296 296 296 291 296 294 297 297 292 291 291 292 294 294 297 296 294 292 292 293 289 285 303 302 295 302 305 303
304 305 305 305 305 306 306 305 305 304 304 303 297 304 307 298 296 301 301 301 300 300 296 296 295 295 298 294 295 294 292 295 295 290 301 292 296 295 296 295 303 304 303 305 304 300 302
Wind_Speed
20 21 22 22 22 21 21 21 22 22 21 21 21 21 20 19 17 16 15 13 13 11 10 9 8 5 5 9 8 12 12 10 12 11 15 13 14 13 15 16 15 15 18 17 16 12 16
20 20 22 22 21 22 22 23 23 23 22 22 21 21 20 19 18 16 14 12 11 10 10 9 7 4 7 13 16 16 15 14 13 15 17 15 12 13 16 14 16 14 12 16 20 13 16
21 22 21 21 22 22 23 24 24 24 23 23 22 22 20 19 19 16 14 11 10 10 8 8 7 7 12 15 1 15 14 14 14 16 14 11 14 10 11 16 12 15 17 15 16 15 17
21 21 21 21 22 23 24 25 26 26 25 25 24 23 21 19 18 16 14 11 10 6 6 7 6 8 9 2 3 13 15 14 15 14 14 8 7 12 16 15 20 12 15 17 16 21 18
20 20 21 22 23 24 25 26 26 27 26 26 25 23 22 20 17 14 12 11 4 2 3 7 7 9 11 4 10 11 15 14 14 11 12 7 9 12 14 15 13 14 15 19 20 20 18
20 21 22 23 24 24 26 26 27 28 28 27 26 25 22 19 16 12 10 6 2 5 6 9 12 9 9 10 10 12 12 14 10 9 11 10 8 13 14 13 14 16 17 15 17 16 11
19 21 22 23 25 25 26 28 28 29 29 29 28 25 23 19 14 10 6 5 6 7 11 12 7 12 4 3 3 8 13 12 14 10 14 15 13 14 17 18 20 17 20 18 20 16 12
19 20 22 23 25 25 25 26 28 28 28 28 29 28 26 22 14 8 6 7 7 8 11 18 19 17 12 5 10 12 12 14 16 16 16 15 18 16 18 19 20 19 17 17 18 22 19
18 19 21 23 23 24 26 27 28 28 28 29 28 28 27 25 22 5 7 7 7 8 8 11 9 10 6 12 14 12 15 16 16 18 18 19 18 19 23 14 17 18 16 17 21 22 20
18 19 21 22 23 25 26 28 29 30 30 29 29 28 28 29 4 9 2 9 7 5 6 12 9 6 7 7 9 14 14 14 17 20 18 17 19 21 20 16 15 18 20 18 21 19 15
19 19 20 21 23 25 26 28 29 30 30 30 29 28 29 5 11 6 10 11 9 4 7 14 12 6 1 10 3 13 12 16 17 18 18 19 20 20 19 19 18 20 16 19 20 19 18
18 19 20 21 22 24 26 27 29 30 31 31 31 29 23 1 8 11 12 10 5 7 6 7 7 6 14 13 10 6 5 14 13 19 20 21 22 23 22 19 17 16 20 18 18 17 18
18 19 19 21 22 24 26 28 29 31 32 34 33 31 13 9 7 11 10 8 7 8 3 5 2 1 7 9 6 9 11 12 12 14 15 20 22 22 21 22 20 17 18 12 17 16 16
17 18 19 20 22 24 26 28 30 32 34 35 37 33 7 8 9 10 8 8 9 10 1 7 2 7 11 12 10 13 8 14 13 18 15 14 16 13 7 15 13 20 14 6 10 17 16
18 18 18 20 21 23 25 27 30 32 35 38 34 8 8 6 6 7 7 8 11 10 7 7 9 12 15 15 8 12 13 12 14 11 4 10 16 11 9 10 11 10 13 14 5 19 18
17 17 19 19 20 22 24 27 29 32 35 38 13 7 2 5 6 6 7 12 20 3 5 8 10 10 13 15 10 12 11 9 9 6 3 8 18 11 5 7 11 11 9 8 2 4 6
15 18 18 18 20 22 23 26 28 30 36 38 5 7 6 8 7 7 9 15 6 9 4 6 10 14 16 13 13 16 13 14 3 2 5 6 10 17 18 14 14 10 5 3 4 5 5
16 17 17 18 19 20 22 25 27 27 32 14 8 7 9 7 7 7 12 4 4 8 9 7 9 12 14 16 17 17 14 14 8 2 6 2 4 11 14 15 15 2 4 2 5 2 3
15 15 16 16 17 19 21 23 26 26 22 10 9 9 5 5 6 10 14 9 12 11 12 9 11 10 11 15 15 13 11 2 3 2 4 7 5 10 14 17 7 6 6 10 3 4 8
14 15 15 16 17 18 19 22 24 26 23 11 7 6 6 8 4 7 12 13 15 14 14 9 15 17 16 16 14 12 15 5 6 2 9 5 9 12 12 17 6 8 13 9 13 9 9
13 14 14 15 16 17 18 20 23 27 27 7 5 5 6 7 10 16 14 14 19 19 19 12 12 13 16 17 16 17 18 17 10 12 5 5 11 13 15 17 16 15 12 13 17 17 15
11 12 13 14 15 16 17 18 21 25 33 5 6 7 10 13 16 16 12 14 18 17 17 15 15 14 17 18 15 18 18 15 15 17 13 11 10 12 16 17 15 16 18 19 19 19 21
11 12 13 13 13 14 16 17 18 20 21 6 9 10 8 8 14 15 14 15 13 16 13 12 14 16 17 12 14 17 15 12 10 9 13 11 11 11 13 17 17 13 17 14 17 19 14
12 12 12 12 13 12 13 15 15 15 14 8 10 8 8 12 14 15 20 20 17 16 20 18 17 18 13 13 13 16 16 13 13 12 10 9 11 9 12 13 17 15 17 8 11 13 12
12 13 12 12 14 11 11 12 14 14 15 9 10 9 8 12 14 18 18 17 17 16 16 19 18 18 17 16 12 12 14 17 20 21 18 14 12 10 9 10 15 17 8 5 6 4 6
13 13 12 12 13 12 12 11 12 12 13 9 10 8 9 10 12 15 18 17 15 14 16 19 18 14 11 9 10 19 15 17 16 23 22 19 15 11 9 3 8 7 5 1 2 6 4
13 13 13 13 12 12 13 13 11 11 12 9 10 6 8 11 14 15 13 13 15 13 11 17 8 11 10 9 13 15 18 20 20 17 8 15 13 15 13 12 8 14 10 5 10 3 7
13 13 14 14 13 13 12 13 12 11 11 8 9 7 7 7 15 23 18 17 15 13 14 13 12 7 8 13 10 14 15 16 18 20 15 14 11 14 14 16 16 4 9 8 8 6 4
13 14 14 14 14 14 13 12 12 11 11 9 10 6 7 6 13 21 23 22 23 18 13 8 12 14 2 5 7 8 11 8 14 13 10 11 8 6 5 3 7 8 11 4 5 1 6
Wind_Direction
16 14 10 5 1 358 356 354 353 351 348 345 343 340 336 332 328 323 315 308 299 287 273 266 261 250 239 228 252 133 143 134 173 205 234 231 228 231 236 245 237 244 251 265 269 267 281
16 11 7 2 359 357 355 353 352 349 347 343 340 336 334 330 326 321 313 304 291 279 265 254 235 198 245 257 112 147 166 166 194 205 229 229 230 227 271 290 270 254 245 255 269 259 263
16 10 5 0 358 356 355 352 350 348 346 343 339 335 333 328 325 322 317 308 291 271 245 232 211 228 262 254 131 154 190 183 214 211 230 231 268 304 266 266 263 273 270 271 265 262 257
15 7 2 1 357 356 354 352 349 347 345 343 340 336 332 328 325 322 319 315 305 257 219 214 200 233 262 128 256 174 183 197 215 226 253 263 270 278 281 283 287 266 266 264 258 241 232
13 5 3 1 357 355 353 350 348 346 345 343 340 337 333 330 328 322 319 315 325 169 177 176 209 228 256 109 222 212 195 211 213 231 242 285 297 261 262 252 260 253 254 255 256 246 228
12 5 4 1 357 355 352 350 348 346 345 344 342 339 336 333 333 326 320 301 123 166 217 202 267 242 244 241 170 214 211 225 214 226 234 228 250 244 244 251 249 258 245 245 244 274 186
7 6 4 2 358 354 353 350 348 346 345 344 342 341 338 337 339 335 302 195 204 200 220 248 278 241 138 142 110 220 199 212 224 218 231 228 242 244 251 245 248 263 277 293 295 300 258
2 4 1 0 358 354 352 350 348 346 344 343 342 341 341 335 335 325 271 271 27 331 289 254 246 251 275 237 222 217 191 211 224 227 220 240 237 249 266 273 278 275 285 284 276 283 286
6 2 360 357 355 354 352 351 349 346 344 343 342 341 340 331 322 250 260 11 320 325 268 245 219 229 210 224 238 244 180 215 226 228 246 245 251 247 238 250 268 278 265 274 278 287 274
4 2 360 356 353 353 353 350 347 345 343 343 341 339 336 327 306 319 353 344 320 10 271 178 191 178 185 226 221 231 186 221 229 251 240 250 256 252 268 241 246 272 283 249 263 267 271
1 1 359 357 355 352 350 349 346 343 341 340 339 336 330 334 301 340 337 329 352 261 269 161 132 98 248 233 77 187 240 203 242 247 246 262 270 257 252 256 282 275 269 285 281 279 248
2 359 357 356 355 353 350 348 346 342 339 338 335 329 333 217 237 303 326 325 262 235 238 139 138 204 195 206 243 159 213 238 261 249 259 273 280 279 284 289 263 263 260 262 278 265 262
0 358 356 356 355 353 350 347 345 342 340 335 332 319 316 306 309 332 324 276 243 245 119 160 165 223 294 285 215 238 255 210 235 247 247 254 255 253 259 260 270 265 276 256 248 240 247
358 356 356 356 354 353 351 348 345 342 339 334 328 311 204 239 293 334 302 262 254 300 28 99 321 269 262 274 262 269 247 270 244 229 251 281 288 320 310 283 272 290 299 336 299 291 278
355 354 356 357 355 352 350 348 346 343 338 332 319 311 238 191 332 326 288 247 245 346 20 0 320 278 263 250 205 291 263 263 287 18 257 288 278 11 14 353 343 310 268 311 328 285 296
354 354 355 355 354 353 350 348 347 345 339 329 318 289 7 356 333 301 269 260 292 62 1 307 281 305 290 298 222 204 263 289 263 157 256 291 295 285 282 239 261 254 356 319 286 3 245
354 355 355 354 353 351 349 347 347 349 341 323 256 294 80 338 304 262 253 269 334 73 34 310 289 286 291 284 289 294 298 287 158 259 192 282 288 284 293 275 304 302 275 348 286 289 306
353 354 355 353 352 351 348 347 346 351 345 340 306 302 13 347 289 236 251 17 351 314 302 245 283 281 283 293 294 287 276 279 65 12 280 51 319 293 284 309 309 290 300 87 270 215 161
351 352 352 352 351 349 348 346 343 347 4 320 305 289 163 298 316 339 347 329 320 293 286 277 273 266 281 283 287 277 280 255 103 270 25 353 242 276 272 256 39 354 292 222 183 63 254
348 348 349 350 349 349 348 346 342 339 347 326 285 310 1 327 185 338 340 313 298 302 289 270 292 287 283 277 264 270 273 240 173 91 69 30 279 264 269 286 159 220 220 239 191 207 252
344 344 345 346 348 349 347 346 343 337 338 307 266 339 1 302 320 333 304 293 289 288 285 265 257 275 269 270 263 265 264 247 179 142 180 191 251 263 267 272 270 278 282 260 225 230 241
336 337 338 342 345 346 345 345 344 342 333 238 331 344 341 300 285 285 282 279 281 286 295 289 292 286 279 277 270 266 277 276 258 178 198 204 243 271 275 272 279 271 267 261 257 272 277
332 335 333 335 337 340 342 344 345 349 341 322 360 335 303 290 293 283 278 278 303 309 307 297 294 276 278 302 345 325 316 312 315 290 189 221 240 228 257 281 288 270 271 268 279 255 263
325 327 328 326 322 325 336 338 341 344 354 322 309 314 298 289 298 295 306 309 303 290 293 296 295 291 285 299 327 301 277 266 269 255 264 254 251 254 263 271 268 274 285 254 296 300 311
318 319 323 323 321 318 323 330 332 337 339 310 307 294 296 292 299 295 294 307 316 306 282 272 261 267 288 296 292 279 259 257 252 253 249 226 239 261 262 251 275 274 282 177 296 279 49
318 318 317 314 316 319 314 310 318 329 332 307 305 329 296 289 267 317 322 303 290 285 284 278 280 300 241 266 258 257 250 253 244 236 224 228 209 232 233 222 242 245 92 124 168 235 44
317 316 314 309 310 315 319 311 305 318 333 312 295 336 296 292 282 296 315 326 312 302 305 305 10 317 314 243 247 253 258 253 254 249 254 221 216 215 233 236 253 254 150 187 228 117 82
316 314 313 308 303 303 310 312 309 307 313 315 296 302 288 284 285 277 291 299 291 278 276 289 320 265 278 252 258 270 256 256 260 259 202 227 210 222 227 236 234 156 136 268 90 135 130
314 313 309 303 297 297 294 300 301 294 296 308 288 326 320 266 288 302 286 275 271 263 272 289 291 300 285 302 1 313 265 263 260 251 241 199 196 235 159 165 127 134 135 154 82 354 43